sat.trackr.live / text

‹ back to catalog

STARLINK-4388

NORAD 53651 · 2022-105D

PAYLOAD ACTIVE UNKNOWN

§ Identity

Operator
Country
US
Launch date
2022-08-31
Launch site
AFWTR
Launch vehicle
Mass (kg)
RCS (m²)

Purposes: comms

External: N2YO · Heavens-Above · Gunter

§ Orbital elements

Epoch: 2026-09-20T22:12:59.906304Z

Period
93.69 min
Inclination
97.5164°
Eccentricity
0.0001973
Mean motion
15.36965483 rev/d
Perigee alt
453.7 km
Apogee alt
456.4 km
Semi-major
6,833.2 km
B*
-1.4152e-6
RAAN
153.4826°
Arg perigee
89.2033°
Mean anomaly
270.9437°
Rev number
22,332

§ Raw data

STARLINK-43881 53651U 22105D   26263.92569336 -.00000134  00000+0 -14152-5 0  99992 53651  97.5164 153.4826 0001973  89.2033 270.9437 15.36965483223322

JSON: /api/v1/satellites/53651 · /tle

For live sub-satellite position, see the globe view (requires WebGL).

§ Visibility from observer

Set your observer location to see the next 7 days of passes ≥ 10°. The values pass through the URL so the page stays shareable.

No JS? Fill the form by hand. The geolocation button needs JavaScript.